LEMUR-2-REMY-COLTON (43884 NORAD) Tracking and Keplerian Element Data

This shows tracking and keplerian element data for the satellite.

Feedback or suggestion? Click here.




ElementValue
Catalog43884
NameLEMUR-2-REMY-COLTON
Epoch Orbit100
Epoch Day16.20692344
Epoch Year2019
RAAN286.3832
Inclination97.7283
Eccentricity0.0011763
Argument of Perigee171.3831
Mean Anonmoly188.7595
Mean Motion14.96393269
Decay Rate2.54E-06
L11 43884U 18111J 19016.20692344 .00000254 00000-0 27505-4 0 9990
L22 43884 97.7283 286.3832 0011763 171.3831 188.7595 14.96393269 1005

Live tracking and technical data element details for LEMUR-2-REMY-COLTON (NORAD 43884). LEMUR-2-REMY-COLTON can be tracked NOW for your location showing map with azimuth and elevation plus other details from your city location.

Track the satellite on the map from your city or location and see movement details for azimuth, elevation, latitude, longitude, range, height, and movement on the map or in text.







IsCatalogInMostPopularTable: catalog: 43884, numindb: 15
Update: records affected: 1



GetName: 43884 LEMUR-2-REMY-COLTON

Hit Count: updated at: Thu, 17 Jan 2019 14:51:29 GMT